Location: Puerto Pe�asco
(31.3170°N, 113.5330°W)
Time: 14:26:43
(UTC-06:00)

OTV 5 (USA 277) - Pass Details

Date: 29 September 2018
Orbit: 387 x 394 km, 54.5° (Epoch: 08 September)

Event Time Altitude Azimuth Distance (km) Brightness Sun altitude
Exits shadow 05:36:21 18° 19° (NNE) 1,065 ? -24.2°
Drops below altitude 10° 05:37:19 10° 27° (NNE) 1,430 ? -24.0°
Sets 05:39:27 0° 34° (NE) 2,288 ? -23.6°
